|
CZ-4B R/B - Orbit
|
Sherrills_Ford_Terrell;
01:17:58
| Home | Info | Passes |
|
View from above orbital plane
|
View from above satellite
|
Ground track
|
The orbit data is extracted from the following two-line orbital elements,
1 29093U 06015B 13145.50492109 .00007213 00000-0 30647-3 0 255
2 29093 097.5596 219.5460 0103320 172.9074 283.6859 15.18553534390656
| Epoch (UTC): | 25 May 2013 12:07:05 |
| Eccentricity: | 0.0103320 |
| inclination: | 97.5596° |
| perigee height: | 439 km |
| apogee height: | 581 km |
| right ascension of ascending node: | 219.5460° |
| argument of perigee: | 172.9074° |
| revolutions per day: | 15.18553534 |
| mean anomaly at epoch: | 283.6859° |
| orbit number at epoch: | 39065 |
The dashed part of the orbit path shows where the satellite is in the earth's shadow,
|
|